This is the latest recevied weather packets stored in our database for station/object KE0LFX. If no packets are shown the sender has not sent any weather packets the latest 10 day(s).
| Time | Temp. | Humidity | Pressure | Rain* | Wind** | Luminosity | Snow |
|---|---|---|---|---|---|---|---|
| 1777917861 | 26.11° C | 35% | 1003.6 hPa | 0 mm | - | 110 W/m² | - |
| 1777917559 | 26.11° C | 37% | 1003.7 hPa | 0 mm | - | 184 W/m² | - |
| 1777917255 | 26.11° C | 36% | 1003.9 hPa | 0 mm | - | 93 W/m² | - |
| 1777916953 | 26.11° C | 38% | 1003.6 hPa | 0 mm | - | 123 W/m² | - |
| 1777916650 | 26.11° C | 38% | 1003.6 hPa | 0 mm | - | 183 W/m² | - |
| 1777916348 | 25.56° C | 37% | 1003.5 hPa | 0 mm | - | 231 W/m² | - |
| 1777916044 | 26.11° C | 37% | 1003.9 hPa | 0 mm | - | 101 W/m² | - |
| 1777915741 | 25.56° C | 37% | 1003.9 hPa | 0 mm | - | 652 W/m² | - |
| 1777915437 | 26.11° C | 36% | 1003.9 hPa | 0 mm | - | 120 W/m² | - |
| 1777915133 | 25.56° C | 37% | 1003.9 hPa | 0 mm | - | 103 W/m² | - |
| 1777914831 | 25.56° C | 38% | 1003.8 hPa | 0 mm | - | 103 W/m² | - |
| 1777914528 | 25° C | 39% | 1003.8 hPa | 0 mm | - | 126 W/m² | - |
| 1777914224 | 25.56° C | 42% | 1004 hPa | 0 mm | - | 113 W/m² | - |
| 1777913921 | 24.44° C | 41% | 1004.1 hPa | 0 mm | - | 85 W/m² | - |
| 1777913618 | 25° C | 40% | 1004.4 hPa | 0 mm | - | 86 W/m² | - |
| 1777913314 | 24.44° C | 43% | 1004.1 hPa | 0 mm | - | 104 W/m² | - |
| 1777913011 | 24.44° C | 42% | 1004.2 hPa | 0 mm | - | 117 W/m² | - |
| 1777912707 | 23.89° C | 44% | 1004.2 hPa | 0 mm | - | 190 W/m² | - |
| 1777912403 | 23.89° C | 45% | 1004.3 hPa | 0 mm | - | 77 W/m² | - |
| 1777912099 | 23.89° C | 45% | 1004.5 hPa | 0 mm | - | 101 W/m² | - |
| 1777911795 | 23.89° C | 45% | 1004.3 hPa | 0 mm | - | 72 W/m² | - |
| 1777911492 | 23.89° C | 46% | 1004.6 hPa | 0 mm | - | 72 W/m² | - |
| 1777911189 | 22.78° C | 48% | 1004.5 hPa | 0 mm | - | 83 W/m² | - |
| 1777910887 | 23.33° C | 47% | 1004.6 hPa | 0 mm | - | 75 W/m² | - |
| 1777910583 | 22.78° C | 48% | 1004.6 hPa | 0 mm | - | 74 W/m² | - |
* Rain latest hour (hover to see other rain measurements)
** Current wind speed in m/s (hover to see current wind gust speed)